Location: Unspecified
(48.2082°N, 0.0000°E)
Time: 11:07:39
(UTC+00:00)

Vanguard 1 - Pass Details

Date: 03 July 2019
Orbit: 653 x 3830 km, 34.3° (Epoch: 22 July)

Event Time Altitude Azimuth Distance (km) Brightness Sun altitude
Rises 19:44:10 0° 171° (S) 7,298 14.1 1.8°
Reaches altitude 10° 19:54:06 10° 147° (SSE) 6,758 13.8 0.4°
Maximum altitude 20:01:52 13° 127° (SE) 6,669 13.6 -0.6°
Drops below altitude 10° 20:09:42 10° 107° (ESE) 6,891 13.8 -1.7°
Sets 20:19:47 0° 85° (E) 7,592 14.2 -3.0°
